Overview Statistics Trail Chart Weather Telemetry Raw packets
 

This is the latest recevied weather packets stored in our database for station/object N5TDX. If no packets are shown the sender has not sent any weather packets the latest 10 day(s).

<< 88 89 90 91 92 93 94 >>
Time Temp. Humidity Pressure Rain* Wind** Luminosity Snow
1788019874 35° C 43% 1015.1 hPa 0 mm - - -
1788019569 34.44° C 43% 1015.1 hPa 0 mm - - -
1788019269 34.44° C 45% 1015.2 hPa 0 mm - - -
1788018967 34.44° C 45% 1015 hPa 0 mm - - -
1788018662 34.44° C 46% 1015 hPa 0 mm - - -
1788018361 33.89° C 47% 1015 hPa 0 mm - - -
1788018056 33.89° C 46% 1015.1 hPa 0 mm - - -
1788017752 33.33° C 47% 1015.1 hPa 0 mm - - -
1788017449 33.33° C 48% 1015.2 hPa 0 mm - - -
1788017146 33.33° C 48% 1015.3 hPa 0 mm - - -
1788016845 32.78° C 48% 1015.6 hPa 0 mm - - -
1788016543 32.78° C 49% 1015.1 hPa 0 mm - - -
1788016238 32.22° C 51% 1015.1 hPa 0 mm - - -
1788015937 32.22° C 50% 1015.3 hPa 0 mm - - -
1788015633 31.67° C 53% 1015.1 hPa 0 mm - - -
1788015343 31.67° C 53% 1015.2 hPa 0 mm - - -
1788015032 30.56° C 54% 1015.3 hPa 0 mm - - -
1788014731 30.56° C 55% 1015.3 hPa 0 mm - - -
1788014426 30.56° C 55% 1015.2 hPa 0 mm - - -
1788014122 30.56° C 55% 1015.2 hPa 0 mm - - -
1788013821 30° C 56% 1015.3 hPa 0 mm - - -
1788013515 30° C 57% 1015.1 hPa 0 mm - - -
1788013215 29.44° C 58% 1015.1 hPa 0 mm - - -
1788012910 29.44° C 59% 1015.2 hPa 0 mm - - -
1788012609 28.89° C 60% 1015.7 hPa 0 mm - - -

* Rain latest hour (hover to see other rain measurements)
** Current wind speed in m/s (hover to see current wind gust speed)